Tracking 31033 objects as of 14-Jul-2025
HD Live streaming from Space Station
objects crossing your sky now

STARLINK-5966

Track STARLINK-5966 now!
10-day predictions
STARLINK-5966 is classified as:


NORAD ID: 56919
Int'l Code: 2023-083AV
Perigee: 565.2 km
Apogee: 567.3 km
Inclination: 43.0 °
Period: 95.8 minutes
Semi major axis: 6937 km
RCS: Unknown
Launch date: June 12, 2023
Source: United States (US)
Launch site: AIR FORCE EASTERN TEST RANGE (AFETR)
Your satellite tracking list
Your tracking list is empty




NASA's NSSDC Master Catalog

Two Line Element Set (TLE):
1 56919U 23083AV  25195.58835108  .00002761  00000-0  21952-3 0  9994
2 56919  43.0037 282.5647 0001529 269.4627  90.6040 15.02518245116006
Source of the keplerian elements: AFSPC